Flag for Cook Islands Weather past 2 weeks in Rarotonga, Cook Islands

Now
66 °F

Scattered showers. Partly cloudy.


Feels Like: 66 °F
Forecast: 64 / 71 °F
Wind: 8 mph from Southeast

Location: Rarotonga

Current Time: Aug 30, 2014 at 4:13:43 AM

Latest Report: Aug 30, 2014 at 4:00 AM


Visibility: N/A

Pressure: 30.01 "Hg

Humidity: 64%

Dew point: 54 °F

Location of RarotongaLocation

Historic Weather in Rarotonga — Graph

°F

Rarotonga temperature yesterday

Maximum temperature yesterday: 72 °F (at 3:00 PM)
Minimum temperature yesterday: 64 °F (at 4:00 AM)
Average temperature yesterday: 67 °F

Past Weeks' High & Low Weather Summary

 TemperatureHumidityPressure
High81 °F (Aug 21, 3:00 PM)100% (Aug 15, 7:00 PM)30.09 "Hg (Aug 15, 7:00 PM)
Low59 °F (Aug 25, 5:00 AM)46% (Aug 26, 9:00 AM)29.80 "Hg (Aug 22, 3:00 PM)
Average70 °F69%29.99 "Hg
* Reported Aug 15 2:00 AM — Aug 30 2:00 AM, Rarotonga, Weather by CustomWeather, © 2014

Note: Actual official high and low records may vary slightly from our data, if they occured in-between our weather recording intervals... More about our weather records

Advertising

Rarotonga weather history for previous 24 hours

 ConditionsComfort  
Time TempWeatherWind HumidityBarometerVisibility
2:00 AM
Aug 30
66 °FScattered showers. Passing clouds.8 mph60%30.04 "HgN/A
1:00 AM66 °FPassing clouds.6 mph56%30.07 "HgN/A
12:00 AM68 °FPassing clouds.8 mph53%30.07 "HgN/A
11:00 PM
Aug 29
68 °FPassing clouds.13 mph53%30.07 "HgN/A
10:00 PM66 °FPassing clouds.7 mph60%30.07 "HgN/A
9:00 PM66 °FPassing clouds.7 mph60%30.07 "HgN/A
8:00 PM66 °FPassing clouds.7 mph60%30.04 "HgN/A
7:00 PM66 °FPassing clouds.8 mph60%30.01 "HgN/A
6:00 PM68 °FScattered clouds.6 mph56%30.01 "HgN/A
5:00 PM70 °FScattered clouds.8 mph53%29.98 "HgN/A
4:00 PM72 °FScattered clouds.13 mph53%29.98 "HgN/A
3:00 PM72 °FScattered clouds.10 mph53%29.98 "HgN/A
2:00 PM70 °FPassing clouds.18 mph53%29.98 "HgN/A
1:00 PM70 °FPassing clouds.17 mph50%30.01 "HgN/A
12:00 PM70 °FPassing clouds.15 mph50%30.04 "HgN/A
11:00 AM70 °FScattered clouds.10 mph53%30.07 "HgN/A
9:00 AM68 °FScattered clouds.9 mph56%30.07 "HgN/A
8:00 AM66 °FScattered clouds.10 mph60%30.04 "HgN/A
7:00 AM64 °FScattered showers. Broken clouds.14 mph68%30.01 "HgN/A
6:00 AM64 °FSprinkles. Partly cloudy.12 mph73%30.01 "HgN/A
5:00 AM64 °FPassing clouds.13 mph64%29.98 "HgN/A
4:00 AM64 °FPassing clouds.13 mph73%29.98 "HgN/A
Weather by CustomWeather, © 2014

See weather overviewHow to use our weather pages